Weather History for Futenma MCAF, Japan

Change the Weather History Date:

Thursday, December 5, 2013

  Actual Average (RODN) Record (RODN)
Temperature  
Mean Temperature 67 °F -  
Max Temperature 73 °F 68 °F 78 °F (1998)
Min Temperature 60 °F 56 °F 49 °F (2013)
Cooling Degree Days 2    
Growing Degree Days 17 (Base 50)    
Moisture  
Dew Point 51 °F    
Average Humidity 61    
Maximum Humidity 77    
Minimum Humidity 48    
Precipitation  
Precipitation 0.00 in - - ()
Sea Level Pressure  
Sea Level Pressure 30.02 in    
Wind  
Wind Speed 5 mph ()    
Max Wind Speed 10 mph    
Max Gust Speed -    
Visibility 5.9 miles    
Events      
Averages and records for this station are not official NWS values.
T = Trace of Precipitation, MM = Missing Value Source: Averaged Metar Reports

Daily Weather History Graph

Daily Weather History Graph

Search for Another Location

Airport:

Trip Planner

Search our weather history database for the weather conditions in past years. The results will help you decide how hot, cold, wet, or windy it might be!

Date:

Astronomy

Dec. 05, 2013 Rise Set
Actual Time 7:02 AM JST 5:36 PM JST
Civil Twilight 6:37 AM JST 6:01 PM JST
Nautical Twilight 6:08 AM JST 6:30 PM JST
Astronomical Twilight 5:40 AM JST 6:58 PM JST
Moon 8:56 AM JST (12/5) 8:08 PM JST (12/5)
Length of Visible Light 11h 24m
Length of Day
10h 34m
Waxing Crescent, 7% of the Moon is Illuminated
Dec 5
Waxing Crescent
Dec 10
First Quarter
Dec 17
Full
Dec 25
Last Quarter
Jan 1
New

Hourly Weather History & Observations

Time (JST) Temp. Dew Point Humidity Pressure Visibility Wind Dir Wind Speed Gust Speed Precip Events Conditions
12:58 AM 61.9 °F 50.5 °F 66% 30.02 in 6.2 mi Variable 3.5 mph - N/A   Scattered Clouds
1:58 AM 62.4 °F 52.0 °F 69% 30.02 in 6.2 mi Variable 3.5 mph - N/A   Scattered Clouds
2:58 AM 62.4 °F 50.9 °F 66% 30.01 in 6.2 mi Variable 4.6 mph - N/A   Scattered Clouds
3:58 AM 62.8 °F 51.6 °F 67% 30.01 in 6.2 mi Variable 5.8 mph - N/A   Partly Cloudy
4:58 AM 62.1 °F 50.9 °F 67% 30.00 in 6.2 mi Variable 3.5 mph - N/A   Partly Cloudy
5:58 AM 62.4 °F 51.8 °F 68% 30.01 in 6.2 mi Variable 3.5 mph - N/A   Partly Cloudy
6:58 AM 63.1 °F 52.0 °F 67% 30.03 in 5.6 mi Variable 3.5 mph - N/A   Haze
7:58 AM 64.2 °F 53.1 °F 67% 30.04 in 5.6 mi Variable 3.5 mph - N/A   Haze
8:58 AM 66.4 °F 54.9 °F 66% 30.06 in 5.6 mi NE 6.9 mph - N/A   Haze
9:58 AM 70.3 °F 53.2 °F 55% 30.08 in 5.6 mi NNE 10.4 mph - N/A   Haze
10:58 AM 70.3 °F 54.7 °F 58% 30.07 in 5.6 mi NE 10.4 mph - N/A   Haze
11:58 AM 69.3 °F 51.3 °F 53% 30.04 in 6.2 mi ENE 10.4 mph - N/A   Partly Cloudy
12:58 PM 73.4 °F 52.5 °F 48% 30.00 in 5.6 mi NNE 10.4 mph - N/A   Haze
1:58 PM 70.2 °F 52.0 °F 52% 29.99 in 5.6 mi NNE 9.2 mph - N/A   Haze
2:58 PM 70.0 °F 51.8 °F 52% 29.99 in 5.6 mi NNE 9.2 mph - N/A   Haze
3:58 PM 68.5 °F 49.8 °F 51% 29.99 in 5.6 mi NNE 9.2 mph - N/A   Haze
4:58 PM 66.9 °F 49.8 °F 54% 29.99 in 5.6 mi NNE 9.2 mph - N/A   Haze
5:58 PM 66.7 °F 49.8 °F 54% 30.00 in 5.6 mi NNE 5.8 mph - N/A   Haze
6:58 PM 64.8 °F 46.9 °F 52% 30.01 in 6.2 mi Variable 4.6 mph - N/A   Partly Cloudy
7:58 PM 63.5 °F 47.3 °F 56% 30.02 in 6.2 mi Variable 4.6 mph - N/A   Partly Cloudy
8:58 PM 63.1 °F 49.6 °F 61% 30.02 in 6.2 mi Variable 5.8 mph - N/A   Partly Cloudy
9:58 PM 62.1 °F 50.9 °F 67% 30.02 in 6.2 mi Variable 3.5 mph - N/A   Partly Cloudy
10:58 PM 61.5 °F 52.5 °F 72% 30.02 in 6.2 mi Variable 5.8 mph - N/A   Partly Cloudy
11:58 PM 60.8 °F 53.4 °F 77% 30.01 in 6.2 mi Variable 3.5 mph - N/A   Partly Cloudy